Temperature
14 14 14 14 14 14 14 13 13 13 13 13 13 12 12 12 12 12 11 11 11 11 11 10 10 10 10 10 10 10 10 10 10 10 10 10 10 10 10 10 10 10 10
14 14 14 13 13 13 13 13 13 13 13 12 12 12 12 12 11 11 11 11 11 11 10 10 10 9 9 9 9 9 9 9 9 9 10 10 10 10 9 9 9 9 9
13 13 13 13 13 13 13 12 12 12 12 12 12 12 11 11 11 11 11 11 10 10 10 10 9 9 9 9 9 9 9 9 9 9 9 9 9 9 9 9 9 9 9
13 13 13 13 13 12 12 12 12 12 11 11 11 11 11 11 11 10 10 10 10 10 9 9 9 9 9 9 9 9 9 9 9 9 9 8 8 8 8 8 8 8 8
13 13 12 12 12 12 12 12 11 11 11 11 11 11 10 10 10 10 10 10 9 9 9 9 9 9 9 9 9 8 8 8 8 8 8 8 8 8 8 8 8 8 8
12 12 12 12 12 11 11 11 11 11 11 10 10 10 10 10 10 10 9 9 9 9 9 9 9 9 9 9 9 8 8 8 8 8 7 7 8 8 8 7 7 7 7
12 12 11 11 11 11 11 11 10 10 10 10 10 10 10 9 9 9 9 9 9 8 8 8 8 8 8 8 8 8 8 7 7 7 7 7 7 7 7 7 7 7 7
11 11 11 11 11 11 10 10 10 10 10 9 9 9 9 9 9 9 9 8 8 8 8 8 8 8 8 8 8 7 7 7 7 6 6 6 6 6 6 6 6 6 6
11 11 11 10 10 10 10 10 10 9 9 9 9 9 8 8 8 8 8 8 8 8 8 8 7 7 7 7 7 7 6 6 6 6 6 6 6 6 5 5 5 6 6
10 10 10 10 10 10 10 9 9 9 9 9 9 8 8 8 7 7 7 7 7 7 7 7 7 7 7 6 6 6 6 6 6 6 5 5 5 5 5 5 5 5 5
10 10 10 10 10 9 9 9 9 9 9 8 8 8 8 7 7 6 6 7 7 7 7 7 6 6 6 6 6 5 5 5 5 5 5 4 4 4 4 4 4 5 5
10 10 9 9 9 9 9 9 9 8 8 8 8 7 7 7 7 6 6 6 6 6 6 6 6 6 5 5 5 5 5 5 4 4 4 4 4 4 4 4 4 4 4
10 9 9 9 9 9 9 9 8 8 8 8 8 7 7 7 6 6 6 5 5 5 6 6 5 5 5 5 5 4 4 4 4 3 3 3 3 3 3 3 3 3 4
9 9 9 9 9 9 8 8 8 8 8 7 7 7 7 6 6 6 5 5 4 4 4 5 5 5 4 4 4 4 4 4 3 3 3 3 3 3 3 3 3 3 3
9 9 8 8 8 8 8 8 8 7 7 7 7 7 6 6 6 5 5 5 4 3 3 4 4 4 3 3 3 3 3 3 3 3 3 2 2 2 2 2 2 3 3
8 8 8 8 8 8 7 7 7 7 7 7 6 6 6 6 5 5 5 5 4 4 3 3 3 3 3 3 3 3 3 2 2 2 2 2 2 2 2 2 2 2 2
8 8 8 7 7 7 7 7 7 7 6 6 6 6 6 5 5 5 5 4 4 3 3 3 3 2 2 2 2 2 2 2 2 2 2 2 2 2 2 2 2 2 2
7 7 7 7 7 7 7 6 6 6 6 6 6 5 5 5 5 4 4 4 3 3 3 2 2 2 2 2 2 2 2 2 2 2 2 1 1 1 1 1 2 2 2
7 6 6 6 6 6 6 6 6 6 6 5 5 5 5 4 4 4 4 3 3 3 2 2 2 2 2 1 1 1 2 2 2 1 1 1 1 1 1 1 1 1 1
6 6 6 6 6 6 6 5 5 5 5 5 5 4 4 4 4 4 3 3 2 2 2 1 1 1 1 1 1 1 1 1 1 1 1 1 1 1 1 1 1 1 1
6 6 6 6 5 5 5 5 5 5 4 4 4 4 4 4 3 3 2 2 2 2 1 1 1 1 1 1 1 0 0 1 1 1 1 1 1 1 1 1 1 1 1
5 5 5 5 5 5 5 5 4 4 4 4 4 4 3 3 3 3 2 2 2 1 1 1 1 0 0 0 0 -0 -0 -0 0 0 -0 0 0 0 0 0 0 0 0
5 5 5 5 5 4 4 4 4 4 4 3 3 3 3 3 2 2 2 2 1 1 1 1 0 0 0 0 -0 -0 -0 -1 -1 -1 -1 -0 0 0 0 0 0 0 -0
4 4 4 4 4 4 4 4 3 3 3 3 3 2 2 2 2 2 2 1 1 1 1 0 0 0 -0 -0 -0 -1 -1 -1 -0 -1 -1 -1 -0 -0 -0 -0 -0 -0 -0
4 4 4 4 4 3 3 3 3 3 3 2 2 2 2 2 1 1 1 1 1 1 0 0 -0 -0 -0 -0 -1 -1 -1 -1 -1 -1 -1 -1 -1 -1 -0 -0 -0 -1 -1
3 3 3 3 3 3 3 3 2 2 2 2 2 2 1 1 1 1 1 1 1 0 0 0 0 -0 -0 -0 -1 -1 -1 -1 -2 -2 -2 -2 -2 -2 -1 -1 -1 -1 -1
Wind_Speed
5 5 4 5 5 5 5 4 5 5 5 5 5 5 4 5 5 4 4 5 5 5 6 6 7 8 8 8 9 9 10 11 11 12 12 12 12 12 13 13 13 14 14
6 5 4 4 4 4 5 5 4 4 3 4 4 4 4 4 4 4 4 5 6 5 6 7 8 8 8 9 10 11 11 11 12 12 13 13 13 13 14 14 14 15 15
8 6 4 3 3 4 5 5 5 5 3 3 3 3 3 3 3 3 3 4 5 6 7 8 8 9 10 10 11 12 12 12 13 13 13 14 14 14 15 15 15 16 16
9 7 4 3 4 5 5 4 3 3 3 2 2 2 2 2 3 3 3 4 5 5 7 8 8 10 11 12 12 13 13 13 13 14 14 14 14 15 15 16 16 16 16
9 7 5 4 5 5 4 3 3 2 2 2 2 2 2 2 2 2 3 3 4 5 7 8 9 10 11 12 13 14 14 14 14 15 15 15 15 16 16 16 17 17 17
9 8 5 5 5 4 3 3 3 3 2 1 2 3 3 3 2 2 2 3 4 6 7 7 8 9 11 12 13 15 15 15 15 15 16 16 16 16 17 17 18 18 18
8 7 5 5 5 4 3 3 3 3 2 1 2 3 3 3 3 2 2 2 3 5 7 7 8 8 9 12 14 15 16 16 17 17 17 17 17 17 17 18 18 18 18
7 7 6 4 4 4 4 3 3 2 1 2 2 2 2 4 4 3 3 2 2 4 6 8 8 8 9 10 12 14 16 16 17 17 17 17 17 17 18 18 18 18 18
7 7 7 6 5 4 4 3 3 3 2 1 1 3 2 1 2 3 3 2 3 3 4 6 7 8 10 10 11 13 16 16 17 18 18 18 18 18 18 18 18 17 17
6 7 7 6 5 4 4 3 3 3 3 2 1 1 1 3 1 2 3 3 4 4 4 5 6 7 9 10 11 14 16 17 17 18 18 18 18 18 18 18 18 18 18
5 6 6 6 5 4 4 3 3 3 3 3 2 1 1 1 1 2 3 4 4 3 3 4 4 6 9 9 11 13 16 17 18 18 19 19 19 19 19 19 19 19 19
3 4 5 5 5 4 4 4 3 3 3 3 2 2 2 1 1 1 2 3 4 4 4 3 3 5 8 9 12 16 17 17 18 19 18 19 19 19 19 20 20 19 19
3 4 4 5 4 4 4 4 3 3 3 3 2 1 1 1 1 1 2 2 3 4 3 2 3 5 7 10 12 16 16 18 18 18 18 18 19 19 19 20 19 19 19
4 5 5 5 5 5 5 4 3 2 2 3 2 1 1 1 1 1 2 1 3 3 2 4 3 4 7 10 12 15 14 17 18 18 18 18 18 19 19 19 18 19 19
4 5 5 4 5 5 4 4 3 3 3 2 2 2 1 1 1 1 1 2 2 3 5 3 3 4 8 10 13 13 13 16 17 18 18 18 18 18 18 18 18 18 18
4 5 5 4 4 4 4 3 3 2 3 2 2 2 1 1 1 1 1 2 2 3 4 4 4 6 8 10 13 13 12 16 16 17 18 18 18 18 18 18 18 18 18
5 5 5 5 4 4 4 4 3 3 3 2 1 2 1 1 1 1 1 1 2 2 5 6 5 5 6 7 10 11 11 11 12 16 17 17 17 17 18 18 18 18 19
5 5 5 5 4 4 4 4 4 3 3 3 2 2 2 1 1 2 1 2 2 2 4 8 7 6 7 7 8 8 9 10 11 15 17 17 17 17 17 18 17 18 18
5 5 5 5 5 4 4 4 4 4 3 3 3 2 2 1 2 2 2 2 2 3 3 5 7 6 6 6 7 7 7 7 10 13 15 15 16 17 18 17 18 18 17
5 5 5 5 5 4 4 4 3 3 3 2 2 2 2 2 2 2 2 2 2 3 3 4 6 6 6 6 5 7 8 7 8 10 11 13 16 17 17 17 17 17 17
4 5 5 4 4 4 4 4 4 4 3 2 1 2 2 2 3 2 2 2 2 3 3 4 6 6 6 6 7 6 8 9 7 5 6 8 10 9 11 15 15 17 17
3 4 4 4 4 3 4 5 4 4 3 3 2 1 2 2 3 4 4 4 4 4 4 4 5 6 8 7 7 7 7 8 7 4 7 9 7 7 8 9 15 17 16
3 4 4 4 4 4 5 5 5 3 3 3 2 1 1 2 2 2 4 5 5 6 6 5 5 7 7 7 7 7 7 8 8 7 7 8 6 7 8 11 16 16 16
3 3 3 4 3 3 5 5 4 3 2 2 2 2 2 2 2 3 2 3 3 4 5 4 4 6 6 6 6 6 7 7 6 5 4 5 6 6 8 9 14 15 15
2 2 3 3 3 3 4 4 4 3 2 2 2 1 1 2 4 4 2 3 4 4 5 6 7 7 9 10 8 5 5 6 7 6 3 3 4 6 6 5 8 13 15
2 2 2 2 3 2 3 3 3 2 2 1 1 1 2 2 4 4 2 2 4 5 5 5 6 7 7 7 8 5 4 5 5 5 3 3 4 5 5 3 4 7 10
Wind_Direction
126 115 104 93 84 82 81 77 73 68 60 54 57 66 65 66 64 55 46 41 37 33 23 16 9 3 359 357 353 349 346 342 338 333 329 327 325 322 318 311 306 302 299
128 123 112 102 86 85 88 90 87 81 69 60 57 57 62 64 64 57 46 36 31 23 14 8 5 359 354 353 349 345 342 339 336 334 330 325 323 320 318 316 310 305 300
130 125 121 114 98 93 91 85 78 71 64 54 48 45 55 57 62 56 47 46 38 25 18 8 4 359 353 351 346 341 339 337 334 330 327 323 320 318 316 314 313 308 303
132 124 121 120 106 96 92 96 86 74 57 48 38 22 36 44 49 55 59 55 45 30 18 10 2 357 351 347 341 339 336 333 330 328 325 321 318 316 314 312 311 309 305
134 128 124 120 111 97 91 97 81 86 75 44 34 31 23 29 26 50 49 49 43 31 19 10 3 358 352 345 341 338 334 331 329 326 323 320 316 314 312 310 308 308 306
136 128 122 119 114 105 95 95 96 75 82 67 52 32 10 7 26 35 22 31 33 27 18 5 359 353 348 344 343 340 336 333 330 326 324 321 316 313 312 310 308 307 305
141 133 127 121 119 123 125 121 111 93 56 52 60 24 2 3 12 12 12 19 16 14 10 359 352 345 342 343 343 340 338 335 331 329 326 323 319 316 315 314 312 310 308
149 146 138 136 132 129 121 123 120 110 62 48 92 79 10 350 352 355 348 360 2 5 1 353 348 342 338 337 336 339 336 335 334 331 328 326 324 322 319 317 316 314 312
153 149 146 141 140 140 145 152 145 137 145 18 68 124 128 239 308 325 333 346 350 354 344 342 343 341 339 339 336 338 336 334 331 329 329 329 326 324 322 320 319 320 319
155 157 152 147 146 143 147 157 149 152 145 151 40 59 150 168 186 308 319 330 339 335 327 334 336 335 337 338 339 339 337 334 333 332 330 329 327 327 325 323 322 323 320
161 160 156 148 148 147 152 147 144 146 150 159 164 150 90 82 177 195 281 312 327 315 314 315 318 326 333 337 337 336 337 336 336 335 333 331 330 329 327 325 323 322 319
164 164 159 152 150 148 153 150 149 145 142 145 149 156 162 179 212 200 252 291 303 303 307 308 312 322 332 339 337 336 336 337 336 335 333 332 331 329 327 325 323 322 320
178 182 167 159 154 154 149 143 147 154 150 147 154 165 167 201 204 200 231 277 292 295 301 301 302 323 337 339 334 333 336 336 335 333 333 332 330 328 327 325 322 322 321
184 172 166 162 156 152 151 145 146 158 148 153 154 156 161 239 224 209 212 257 307 304 294 287 301 314 334 331 328 331 334 332 332 333 333 331 329 327 327 326 324 324 322
169 158 157 157 158 157 154 148 155 163 154 161 165 167 183 231 244 249 225 212 234 294 300 287 302 307 325 326 326 330 328 327 330 331 331 331 330 329 327 328 327 325 323
165 159 160 159 158 156 152 147 154 160 154 164 168 164 199 240 263 268 252 254 233 251 281 285 290 301 314 321 324 328 324 327 328 328 329 330 331 333 332 330 328 329 329
166 167 167 165 163 165 163 161 169 164 164 171 181 186 223 246 258 268 268 270 265 256 281 294 295 304 309 312 321 325 325 324 324 325 327 329 331 331 332 331 330 329 329
170 169 165 165 171 171 170 174 177 172 176 186 201 199 233 259 266 273 274 272 273 267 273 294 306 310 309 310 313 317 324 325 323 323 327 330 333 333 332 331 329 327 327
166 164 164 172 177 176 177 182 180 181 186 191 193 201 222 225 269 284 287 282 289 301 291 292 301 307 309 312 318 317 316 318 322 323 326 332 334 334 332 330 329 329 331
168 170 173 177 177 175 175 176 174 176 180 191 198 205 212 220 237 252 276 279 296 311 311 304 303 308 308 311 319 324 324 324 321 324 326 330 328 328 330 332 332 334 335
171 171 168 169 170 173 179 175 173 171 173 184 208 218 224 251 266 267 282 282 294 302 308 309 308 311 314 325 324 321 318 320 317 321 322 321 323 325 328 329 332 333 334
165 160 166 168 169 183 185 179 168 166 174 186 213 250 259 263 284 304 308 306 300 295 299 300 304 306 309 311 313 314 316 322 320 328 325 314 319 315 319 324 328 331 334
160 158 167 168 177 188 179 175 166 160 174 192 207 227 280 292 311 294 306 317 317 313 301 291 292 294 299 303 308 310 313 313 304 308 316 306 315 310 314 321 325 329 333
168 170 172 173 172 185 174 167 160 149 168 196 214 219 234 266 285 299 303 310 307 306 302 299 280 288 297 301 296 297 302 304 296 302 313 299 310 308 311 315 321 328 333
166 171 168 166 166 184 180 169 151 152 173 210 224 223 232 253 285 309 310 305 312 315 326 323 318 318 322 324 324 322 319 319 313 312 318 304 305 308 304 298 319 331 336
159 153 148 154 160 178 189 174 158 161 180 216 249 254 267 286 291 305 300 294 305 313 319 324 332 333 332 329 332 328 308 307 309 309 313 318 307 322 316 301 314 329 330
Height
1525 1526 1527 1527 1528 1528 1529 1530 1530 1530 1531 1531 1531 1531 1530 1530 1530 1529 1529 1528 1527 1526 1525 1524 1523 1522 1521 1519 1518 1516 1515 1513 1511 1509 1507 1505 1504 1502 1500 1499 1497 1495 1493
1523 1524 1525 1526 1527 1527 1528 1528 1529 1529 1529 1530 1530 1529 1529 1529 1528 1528 1527 1527 1526 1525 1524 1523 1521 1520 1519 1517 1516 1514 1512 1510 1508 1506 1504 1502 1500 1498 1497 1495 1493 1491 1489
1521 1522 1523 1524 1525 1526 1527 1527 1527 1528 1528 1528 1528 1528 1528 1527 1527 1527 1526 1525 1524 1523 1522 1521 1519 1518 1517 1515 1513 1511 1509 1507 1505 1503 1501 1499 1497 1495 1493 1491 1489 1487 1485
1520 1521 1522 1523 1524 1525 1525 1526 1526 1526 1527 1527 1527 1526 1526 1526 1526 1525 1524 1524 1523 1522 1521 1519 1517 1516 1514 1513 1511 1509 1507 1505 1502 1500 1498 1495 1493 1491 1489 1487 1484 1482 1480
1518 1519 1520 1521 1522 1523 1524 1524 1524 1525 1525 1525 1525 1525 1525 1524 1524 1524 1523 1522 1521 1520 1519 1517 1516 1514 1512 1510 1508 1506 1504 1502 1499 1497 1494 1492 1489 1487 1485 1482 1480 1478 1476
1516 1517 1518 1520 1520 1521 1522 1523 1523 1523 1524 1524 1524 1523 1523 1523 1523 1522 1522 1521 1520 1519 1517 1516 1514 1512 1510 1508 1505 1503 1501 1498 1496 1493 1491 1488 1485 1483 1480 1478 1475 1473 1471
1514 1515 1516 1518 1519 1520 1520 1521 1521 1521 1522 1522 1522 1522 1522 1522 1521 1521 1520 1519 1518 1517 1516 1514 1512 1510 1508 1505 1503 1500 1497 1495 1492 1490 1487 1484 1481 1479 1476 1473 1471 1468 1466
1512 1513 1515 1516 1517 1518 1519 1519 1519 1519 1520 1520 1520 1520 1520 1521 1520 1520 1519 1518 1517 1515 1514 1512 1510 1508 1505 1503 1500 1497 1494 1492 1489 1486 1483 1480 1478 1475 1472 1469 1466 1463 1460
1510 1512 1513 1514 1516 1516 1517 1518 1518 1518 1518 1519 1519 1519 1519 1518 1518 1517 1517 1516 1515 1513 1512 1510 1508 1505 1503 1500 1497 1494 1491 1488 1485 1483 1480 1477 1473 1470 1467 1464 1462 1458 1455
1508 1510 1511 1512 1513 1514 1515 1516 1516 1517 1517 1517 1517 1518 1518 1517 1516 1514 1514 1513 1512 1511 1509 1507 1505 1503 1500 1498 1494 1491 1488 1485 1482 1479 1476 1473 1470 1466 1463 1460 1457 1454 1451
1506 1508 1509 1510 1511 1512 1513 1514 1514 1515 1515 1515 1515 1515 1515 1515 1514 1513 1510 1510 1509 1508 1507 1505 1503 1500 1498 1495 1491 1488 1485 1481 1478 1475 1472 1469 1465 1462 1459 1456 1453 1450 1447
1504 1505 1506 1507 1508 1509 1510 1511 1512 1513 1513 1513 1513 1513 1513 1513 1512 1511 1509 1507 1505 1504 1503 1502 1500 1497 1495 1492 1488 1485 1481 1478 1474 1471 1468 1465 1461 1458 1455 1451 1448 1445 1442
1501 1503 1504 1505 1506 1507 1508 1509 1510 1511 1511 1511 1511 1511 1511 1511 1510 1509 1507 1505 1502 1500 1499 1498 1496 1494 1491 1488 1485 1481 1478 1474 1471 1467 1464 1461 1457 1454 1450 1447 1444 1441 1438
1499 1501 1502 1503 1504 1505 1506 1507 1508 1508 1508 1509 1509 1509 1509 1508 1508 1507 1506 1503 1500 1497 1496 1494 1493 1491 1488 1485 1481 1478 1474 1471 1467 1464 1460 1457 1453 1450 1446 1443 1439 1436 1433
1497 1498 1500 1500 1501 1502 1504 1504 1505 1505 1506 1506 1506 1506 1506 1506 1505 1505 1503 1502 1500 1495 1491 1490 1489 1487 1484 1481 1478 1474 1471 1467 1463 1460 1456 1453 1449 1446 1442 1439 1435 1432 1429
1495 1496 1497 1498 1499 1500 1501 1502 1503 1503 1504 1504 1504 1504 1504 1503 1503 1502 1501 1499 1498 1495 1490 1487 1485 1483 1481 1478 1474 1471 1467 1464 1460 1456 1453 1449 1446 1442 1438 1435 1432 1428 1425
1492 1493 1495 1496 1497 1498 1498 1499 1500 1500 1501 1501 1501 1501 1501 1500 1499 1498 1497 1496 1494 1492 1488 1484 1483 1480 1477 1474 1470 1467 1464 1460 1456 1453 1449 1445 1442 1438 1435 1431 1428 1424 1421
1489 1491 1492 1493 1494 1496 1496 1497 1497 1498 1498 1498 1498 1498 1498 1497 1496 1495 1494 1492 1491 1489 1486 1481 1478 1476 1473 1470 1467 1463 1460 1457 1453 1449 1446 1442 1438 1435 1431 1428 1424 1421 1417
1486 1488 1489 1490 1492 1493 1494 1494 1495 1495 1496 1496 1496 1495 1495 1494 1493 1492 1491 1489 1487 1485 1483 1479 1475 1473 1470 1467 1463 1460 1456 1453 1450 1446 1442 1439 1435 1431 1428 1424 1420 1417 1414
1484 1485 1486 1488 1489 1490 1491 1492 1492 1493 1493 1493 1493 1492 1492 1491 1490 1489 1487 1486 1484 1482 1480 1477 1473 1469 1466 1463 1460 1456 1452 1449 1445 1442 1439 1436 1432 1428 1425 1421 1417 1414 1410
1481 1482 1484 1485 1486 1487 1488 1489 1490 1490 1490 1490 1490 1490 1489 1488 1487 1486 1484 1483 1481 1478 1476 1473 1470 1466 1463 1460 1457 1453 1449 1445 1442 1439 1435 1432 1428 1425 1421 1418 1414 1411 1407
1478 1479 1481 1482 1483 1484 1485 1486 1487 1487 1487 1487 1487 1486 1486 1485 1484 1483 1482 1480 1478 1476 1473 1470 1467 1464 1460 1458 1454 1451 1447 1443 1438 1437 1432 1428 1426 1421 1418 1415 1411 1408 1405
1475 1476 1478 1479 1480 1481 1482 1483 1483 1484 1484 1483 1483 1483 1482 1482 1481 1479 1478 1477 1475 1473 1471 1468 1465 1462 1458 1455 1452 1449 1445 1442 1438 1434 1430 1425 1423 1419 1416 1412 1409 1406 1403
1472 1473 1475 1476 1477 1478 1479 1480 1480 1480 1480 1480 1480 1480 1479 1478 1477 1476 1475 1473 1471 1469 1467 1465 1462 1459 1456 1453 1450 1447 1443 1439 1435 1432 1429 1424 1420 1416 1413 1410 1407 1404 1400
1469 1470 1472 1473 1474 1475 1476 1476 1477 1477 1477 1477 1477 1476 1476 1475 1474 1473 1472 1470 1468 1466 1464 1462 1460 1457 1454 1451 1448 1444 1441 1437 1432 1429 1426 1422 1417 1414 1410 1407 1405 1402 1398
1466 1468 1469 1470 1471 1472 1472 1473 1474 1473 1473 1473 1473 1473 1473 1472 1471 1470 1469 1467 1464 1462 1460 1458 1456 1453 1451 1448 1445 1442 1439 1435 1430 1427 1424 1421 1417 1413 1408 1405 1402 1399 1396